Location: Monrovia
(34.7865°N, 86.7139°W)
Time: 21:45:48
(UTC+00:00)

Lacrosse 5 - Pass Details

Date: 14 July 2020
Orbit: 717 x 720 km, 57.0° (Epoch: 04 August)

Event Time Altitude Azimuth Distance (km) Brightness Sun altitude
Exits shadow 06:47:15 16° 308° (NW) 1,828 4.1 -32.2°
Maximum altitude 06:48:32 17° 326° (NNW) 1,754 4.2 -32.1°
Drops below altitude 10° 06:51:52 10° 8° (N) 2,203 5.2 -31.9°
Sets 06:55:03 0° 28° (NNE) 3,126 6.3 -31.7°
